[[{"header":{"parameterUnit":"m.s-1","parameterCategory":1,"la1":30.2991,"la2":30.254,"lo1":-89.0895,"lo2":-89.0444,"dy":0.0017,"dx":0.0017,"nx":28,"ny":28,"refTime":"2025-07-21T09:00:00:Z","depth":0,"parameterNumber":2,"parameterNumberName":"U-component_of_WINDS"},"data":[0,0,0,0,0,0,0,0,0,0,0,0,0,0,0,0,0,0,0,0,0,0,0,0,0,0,0,0,0,0,0,0,0,0,0,0,0,0,0,0,0,0,0,0,0,0,0,0,0,0,0,0,0,0,0,0,0,0,4.2267,4.2269,0,4.2413,4.2414,4.2416,4.234,4.2337,4.2333,4.2329,4.248,4.2488,4.2495,0,0,0,0,0,0,0,0,0,0,0,0,0,4.1925,4.1931,4.2267,4.2269,4.2271,4.2412,4.2414,4.2416,4.2341,4.2336,4.2332,4.2327,4.2478,4.2487,4.2496,0,0,0,0,0,0,0,0,0,0,0,0,0,4.2072,4.1934,4.2267,4.225,4.225,4.2412,4.2415,4.2417,4.2342,4.2336,4.233,4.2325,4.2475,4.2486,4.2497,4.2684,0,0,4.2532,4.2537,0,0,0,0,0,0,0,0,4.2064,4.2085,4.2251,4.2252,4.2252,4.2352,4.2349,4.2507,4.2344,4.2307,4.2329,4.2322,4.2443,4.2456,4.2496,4.2691,4.2698,4.2533,4.254,4.2545,4.2548,0,0,0,0,0,0,0,4.2054,4.2078,4.2325,4.2253,4.2254,4.2236,4.225,4.2379,4.2406,4.231,4.2305,4.2323,4.2442,4.2486,4.2499,4.27,4.2533,4.2543,4.255,4.2555,4.3054,4.306,0,0,0,0,0,0,4.2044,4.207,4.232,4.2329,4.2142,4.2247,4.2263,4.2326,4.2404,4.2411,4.2328,4.2319,4.2469,4.2486,4.2504,4.2727,4.2545,4.2556,4.2562,4.3047,4.3055,4.3062,0,0,0,0,0,0,4.2037,4.2067,4.2314,4.2198,4.2228,4.2259,4.233,4.2332,4.2376,4.2418,4.2422,4.2368,4.2465,4.2488,4.2639,4.2731,4.2561,4.2571,4.304,4.305,4.3058,4.3174,0,0,0,0,0,0,4.2028,4.2065,4.2137,4.2201,4.2235,4.2447,4.2336,4.2339,4.2395,4.2385,4.2456,4.2462,4.2462,4.2623,4.2651,4.2744,4.258,4.3032,4.3044,4.3055,4.3162,4.3186,4.3207,0,0,0,0,0,4.2016,4.2165,4.2141,4.2171,4.2325,4.2452,4.2472,4.2468,4.2403,4.2475,4.2502,4.246,4.2717,4.2639,4.267,4.2768,4.3026,4.3041,4.3055,4.3152,4.3182,4.3207,0,0,0,0,0,0,4.2112,4.2173,4.2147,4.2321,4.2382,4.2439,4.253,4.25,4.2582,4.2569,4.2561,4.2578,4.2734,4.2766,4.2679,4.2952,4.2861,4.2882,4.2925,4.2953,4.2975,4.2964,4.259,0,0,0,0,0,4.2153,4.2251,4.2299,4.2448,4.248,4.25,4.2556,4.2547,4.261,4.2636,4.2674,4.2738,4.2832,4.2895,4.2984,4.3167,4.318,4.3249,4.3272,4.329,4.3308,4.3405,4.3435,4.3109,4.3109,4.3109,0,0,4.224,4.2285,4.2348,4.2468,4.2515,4.2616,4.2522,4.2634,4.271,4.2653,4.2797,4.2828,4.2898,4.3065,4.3141,4.3096,4.3401,4.3308,4.3322,4.3331,4.3423,4.3453,4.3481,4.3119,4.3117,4.3115,0,0,4.2448,4.2493,4.2621,4.2669,4.274,4.2752,4.2783,4.2845,4.2862,4.3007,4.2966,4.3056,4.3219,4.327,4.3318,4.3545,4.3509,4.3574,4.3691,4.3786,4.3811,4.3834,4.3913,4.3942,4.3592,4.3593,4.3593,0,4.2547,4.2698,4.269,4.2805,4.2859,4.2812,4.294,4.2987,4.3085,4.3123,4.3072,4.3275,4.3319,4.3496,4.3551,4.3592,4.3626,4.3566,4.3808,4.3831,4.3852,4.3927,4.3957,4.36,4.3599,4.3598,4.3598,0,4.2815,4.292,4.3015,4.3108,4.3172,4.3294,4.3304,4.3371,4.3357,4.3374,4.3521,4.3572,4.367,4.3712,4.37,4.3888,4.3857,4.3808,4.3717,4.389,4.3961,4.399,4.3611,4.3608,4.3606,4.3604,0,0,4.3088,4.3174,4.3209,4.325,4.3324,4.3405,4.3524,4.3619,4.3675,4.3744,4.3842,4.3981,4.3935,4.3989,4.3983,4.4066,4.4239,4.4006,4.4007,4.4045,4.4447,4.4482,4.4516,4.4217,4.4222,4.4227,4.444,0,4.33,4.3507,4.3503,4.3695,4.3791,4.3747,4.385,4.3907,4.3926,4.4011,4.4032,4.413,4.4063,4.4095,4.4175,4.4201,4.432,4.4186,4.4307,4.4312,4.4289,4.4553,4.4591,4.479,4.4468,4.4472,4.4476,0,4.3575,4.3651,4.3852,4.391,4.395,4.4043,4.4129,4.4211,4.4274,4.4282,4.4341,4.4321,4.4441,4.4348,4.4512,4.4421,4.4471,4.4491,4.4499,4.4509,4.4403,4.4568,4.4854,4.4883,4.452,4.4516,4.4513,0,4.3752,4.3905,4.4044,4.408,4.4152,4.4218,4.4251,4.4308,4.4365,4.444,4.4477,4.4566,4.4614,4.4683,4.4687,4.4619,4.4853,4.476,4.4862,4.4862,4.4912,4.4909,4.5208,4.4948,4.4947,4.4947,4.4946,0,4.3988,4.4112,4.4123,4.4209,4.4346,4.4341,4.4477,4.4504,4.4555,4.4645,4.4614,4.4699,4.47,4.4787,4.4791,4.4926,4.4948,4.4958,4.4957,4.496,4.4958,4.4991,4.4976,4.4955,4.4953,4.4951,4.495,0,4.4208,4.4221,4.4369,4.4424,4.4441,4.454,4.4587,4.4668,4.4684,4.4798,4.4825,4.485,4.4951,4.4962,4.508,4.5082,4.5244,4.523,4.5222,4.5219,4.532,4.531,4.5649,4.5693,4.5406,4.5409,4.5411,0,4.4357,4.4451,4.4516,4.4573,4.4609,4.4703,4.476,4.4758,4.4818,4.4896,4.4968,4.5065,4.5142,4.5305,4.5334,4.5423,4.541,4.5522,4.5423,4.5422,4.5409,4.5402,4.5411,4.5541,4.5544,4.5547,4.5549,0,4.4619,4.462,4.4703,4.4789,4.4857,4.4925,4.4988,4.5037,4.5043,4.5112,4.5214,4.5274,4.5393,4.5489,4.5576,4.561,4.5581,4.558,4.5608,4.5611,4.5602,4.5606,4.5273,4.5572,4.557,4.5568,4.5567,4.5566,4.4807,4.4887,4.4945,4.5038,4.5085,4.5144,4.5223,4.5248,4.5332,4.5428,4.5422,4.5533,4.5593,4.5707,4.5748,4.5835,4.5797,4.5838,4.5848,4.5858,4.5867,4.5589,4.5851,4.585,4.585,4.5849,4.5849,0,4.5065,4.51,4.5186,4.5274,4.5347,4.5312,4.538,4.5443,4.5541,4.5599,4.5675,4.5791,4.5884,4.592,4.601,4.6073,4.6062,4.6097,4.6091,4.6099,4.5897,4.5862,4.6104,4.6104,4.6104,4.6104,4.6104,4.6104,4.5208,4.5342,4.535,4.5507,4.5541,4.5649,4.569,4.5744,4.579,4.592,4.5996,4.6019,4.6068,4.6161,4.6245,4.6253,4.6287,4.6328,4.633,4.614,4.6114,4.6089,4.6057,4.6336,4.6336,4.6525,4.6527,4.6528]},{"header":{"parameterUnit":"m.s-1","parameterCategory":1,"la1":30.2991,"la2":30.254,"lo1":-89.0895,"lo2":-89.0444,"dy":0.0017,"dx":0.0017,"nx":28,"ny":28,"refTime":"2025-07-21T09:00:00:Z","depth":0,"parameterNumber":3,"parameterNumberName":"V-component_of_WINDS"},"data":[0,0,0,0,0,0,0,0,0,0,0,0,0,0,0,0,0,0,0,0,0,0,0,0,0,0,0,0,0,0,0,0,0,0,0,0,0,0,0,0,0,0,0,0,0,0,0,0,0,0,0,0,0,0,0,0,0,0,1.8111,1.8111,0,1.8098,1.8098,1.8098,1.8047,1.8045,1.8044,1.8043,1.8031,1.8032,1.8032,0,0,0,0,0,0,0,0,0,0,0,0,0,1.809,1.8091,1.8111,1.8111,1.8111,1.8098,1.8098,1.8098,1.8047,1.8045,1.8044,1.8042,1.8031,1.8032,1.8032,0,0,0,0,0,0,0,0,0,0,0,0,0,1.8091,1.8091,1.8111,1.8084,1.8081,1.8099,1.8098,1.8098,1.8047,1.8045,1.8043,1.8042,1.803,1.8031,1.8033,1.8076,0,0,1.8036,1.8037,0,0,0,0,0,0,0,0,1.8091,1.8091,1.8088,1.8086,1.8083,1.8072,1.8086,1.8091,1.8048,1.806,1.8043,1.8041,1.8046,1.8046,1.8047,1.8075,1.8075,1.8036,1.8037,1.8038,1.8038,0,0,0,0,0,0,0,1.8091,1.8092,1.8106,1.8088,1.8085,1.8072,1.807,1.8087,1.8063,1.8059,1.8055,1.8054,1.8044,1.8046,1.8047,1.8075,1.8036,1.8037,1.8038,1.8039,1.8134,1.8136,0,0,0,0,0,0,1.8095,1.8092,1.8107,1.8106,1.8082,1.8074,1.8071,1.8077,1.8063,1.8059,1.8056,1.8052,1.8045,1.8045,1.8046,1.8094,1.8038,1.8039,1.8039,1.8133,1.8135,1.8137,0,0,0,0,0,0,1.8094,1.8096,1.8107,1.8098,1.8098,1.8076,1.8083,1.8078,1.808,1.8061,1.8056,1.8062,1.8044,1.8045,1.8068,1.8093,1.8039,1.804,1.813,1.8133,1.8136,1.8192,0,0,0,0,0,0,1.8094,1.8097,1.8113,1.8099,1.8099,1.813,1.8085,1.8079,1.8082,1.8077,1.8066,1.8062,1.8043,1.8067,1.8069,1.8094,1.8041,1.8128,1.8132,1.8135,1.8188,1.8196,1.8203,0,0,0,0,0,1.8093,1.813,1.8114,1.8116,1.8119,1.8131,1.8132,1.8108,1.8085,1.8101,1.8088,1.8062,1.809,1.807,1.8072,1.8097,1.8126,1.8131,1.8135,1.8184,1.8194,1.8203,0,0,0,0,0,0,1.8149,1.8128,1.811,1.8143,1.8139,1.8123,1.8142,1.812,1.8124,1.8119,1.809,1.8087,1.8115,1.8108,1.8086,1.8137,1.8104,1.8109,1.814,1.815,1.8158,1.8159,1.8042,0,0,0,0,0,1.8165,1.8177,1.8158,1.8189,1.8188,1.8165,1.817,1.8152,1.8147,1.8145,1.8134,1.8131,1.8138,1.8144,1.815,1.8186,1.8182,1.8205,1.8212,1.8219,1.8224,1.824,1.825,1.815,1.815,1.815,0,0,1.8199,1.8189,1.8198,1.82,1.8195,1.8207,1.8165,1.818,1.8188,1.8148,1.8169,1.8161,1.8154,1.8184,1.8197,1.8179,1.825,1.8224,1.823,1.8231,1.8246,1.8255,1.8263,1.8153,1.8153,1.8152,0,0,1.8266,1.826,1.8284,1.828,1.8272,1.8256,1.8262,1.8248,1.8241,1.8262,1.8231,1.824,1.8255,1.8251,1.8251,1.8314,1.829,1.8316,1.8358,1.8374,1.8382,1.8389,1.841,1.8418,1.8321,1.8321,1.8321,0,1.8309,1.8326,1.83,1.8316,1.8317,1.828,1.8304,1.83,1.8296,1.8297,1.8278,1.8293,1.8286,1.8314,1.8329,1.833,1.8335,1.8318,1.8383,1.839,1.8396,1.8416,1.8424,1.8324,1.8324,1.8324,1.8323,0,1.8378,1.8391,1.8411,1.8406,1.8409,1.843,1.8406,1.8412,1.8393,1.838,1.84,1.839,1.8393,1.8398,1.8381,1.8422,1.8412,1.8388,1.8354,1.8409,1.8427,1.8434,1.8329,1.8328,1.8327,1.8326,0,0,1.8482,1.846,1.8468,1.8464,1.8452,1.8461,1.8479,1.848,1.8486,1.8483,1.8497,1.8508,1.8486,1.8486,1.8467,1.8482,1.8531,1.8456,1.8456,1.847,1.8574,1.8592,1.8601,1.8515,1.8516,1.8517,1.8575,0,1.8545,1.8574,1.855,1.8583,1.8593,1.8557,1.8572,1.8566,1.8553,1.856,1.8545,1.8554,1.8524,1.8523,1.8536,1.8522,1.8551,1.8518,1.8526,1.8527,1.8529,1.8611,1.863,1.8684,1.8582,1.8583,1.8584,0,1.8623,1.8622,1.8657,1.864,1.8643,1.8658,1.8656,1.8663,1.8654,1.8644,1.8643,1.8619,1.8635,1.8601,1.8621,1.8599,1.8601,1.8594,1.8596,1.8595,1.8559,1.8612,1.8701,1.8709,1.8595,1.8594,1.8593,0,1.8694,1.8702,1.8722,1.872,1.8702,1.8713,1.8705,1.8695,1.8697,1.8696,1.8696,1.8697,1.8697,1.8698,1.8675,1.8653,1.8697,1.8662,1.8688,1.8689,1.8699,1.8699,1.879,1.8702,1.8702,1.8701,1.8701,0,1.8766,1.8789,1.8753,1.8766,1.8789,1.8761,1.8784,1.8773,1.8764,1.8774,1.8742,1.8752,1.8721,1.8727,1.8709,1.8727,1.8728,1.8719,1.8714,1.8722,1.8723,1.8723,1.8718,1.8704,1.8703,1.8703,1.8702,0,1.8849,1.8827,1.8847,1.8827,1.8823,1.884,1.8823,1.8834,1.8818,1.8831,1.8832,1.8807,1.8813,1.8789,1.8791,1.8779,1.8806,1.8795,1.8809,1.8805,1.8832,1.883,1.8926,1.8936,1.8842,1.8843,1.8844,0,1.8897,1.8913,1.8894,1.8898,1.8892,1.8899,1.89,1.8872,1.8874,1.8864,1.8876,1.8878,1.8879,1.8889,1.8871,1.8872,1.886,1.8893,1.886,1.8866,1.8859,1.8858,1.8859,1.89,1.8901,1.8902,1.8903,0,1.8984,1.8971,1.8974,1.8972,1.8974,1.8972,1.8967,1.8972,1.8941,1.8945,1.895,1.895,1.8951,1.8953,1.895,1.8942,1.8917,1.8914,1.8919,1.8927,1.8934,1.893,1.8827,1.8912,1.8911,1.891,1.891,1.8909,1.905,1.9061,1.9049,1.9053,1.9046,1.9042,1.905,1.9035,1.9038,1.9036,1.9019,1.9026,1.9015,1.9008,1.9002,1.9007,1.8991,1.9,1.9002,1.9005,1.9009,1.8934,1.9007,1.9006,1.9006,1.9006,1.9006,0,1.9134,1.9123,1.9127,1.9121,1.9123,1.9099,1.9092,1.9096,1.9102,1.9094,1.9095,1.9099,1.91,1.9082,1.9081,1.9089,1.9077,1.9089,1.9088,1.9086,1.9024,1.9018,1.9098,1.9098,1.9098,1.9098,1.9098,1.9098,1.9177,1.9195,1.9181,1.9194,1.9184,1.9191,1.9189,1.9184,1.9177,1.9183,1.9184,1.9172,1.9159,1.9156,1.9157,1.9151,1.9152,1.9168,1.9158,1.91,1.9091,1.9082,1.9077,1.9168,1.9168,1.922,1.9221,1.9221]}]]